N4BBA Weather Reports


Display with metric or nautical units.
time (UTC)temp
F
wind
direction
speed
MPH
gust
MPH
rain 1hr
in
rain 24hr
in
rain mn
in
humidity
%
barometer
mb
20260508054607 51 123 0.0 0.0 0.00 0.00 0.00 97 1013.3
20260508054105 51 123 0.0 0.0 0.00 0.00 0.00 97 1013.0
20260508053601 52 111 0.0 0.0 0.00 0.00 0.00 97 1013.0
20260508053059 52 106 0.0 0.0 0.00 0.00 0.00 97 1012.8
20260508052556 52 106 0.0 0.0 0.00 0.00 0.00 97 1012.9
20260508052054 52 112 0.0 0.0 0.00 0.00 0.00 97 1012.9
20260508051549 52 112 0.0 0.0 0.00 0.00 0.00 97 1013.0
20260508051045 52 112 0.0 0.0 0.00 0.00 0.00 97 1013.0
20260508050541 53 112 0.0 0.0 0.00 0.00 0.00 97 1013.0
20260508050039 53 112 0.0 0.0 0.00 0.00 0.00 97 1012.9
20260508045535 53 112 0.0 0.0 0.00 0.00 0.00 97 1012.9
20260508045033 53 106 0.0 0.0 0.00 0.00 0.00 97 1012.8
20260508044530 53 106 0.0 0.0 0.00 0.00 0.00 97 1012.9
20260508044026 53 106 0.0 0.0 0.00 0.00 0.00 97 1012.9
20260508043522 53 105 0.0 0.0 0.00 0.00 0.00 97 1013.0
20260508043020 54 107 0.0 0.0 0.00 0.00 0.00 97 1013.1
20260508042516 54 110 0.0 0.0 0.00 0.00 0.00 97 1013.0
20260508042014 54 107 0.0 0.0 0.00 0.00 0.00 97 1012.7
20260508041510 54 130 0.0 1.0 0.00 0.00 0.00 97 1013.0
20260508041007 54 112 0.0 1.0 0.00 0.00 0.00 97 1012.8
20260508040504 54 127 0.0 0.0 0.00 0.00 0.00 97 1013.0
20260508040001 54 135 0.0 1.0 0.00 1.38 1.38 97 1012.9
20260508035458 54 138 0.0 0.0 0.00 1.38 1.38 97 1012.8
20260508034955 54 118 0.0 0.0 0.00 1.38 1.38 96 1012.5
20260508034452 54 144 1.0 1.0 0.00 1.38 1.38 96 1012.6
20260508033949 53 112 0.0 0.0 0.00 1.38 1.38 96 1012.4
20260508033447 53 102 0.0 0.0 0.00 1.38 1.38 96 1012.2
20260508032944 54 108 0.0 0.0 0.00 1.38 1.38 96 1012.1
20260508032441 53 111 0.0 0.0 0.00 1.38 1.38 96 1012.2
20260508031938 53 108 0.0 0.0 0.00 1.38 1.38 96 1012.1
20260508031436 54 61 0.0 1.0 0.00 1.38 1.38 96 1011.9
20260508030931 54 81 1.0 1.0 0.00 1.38 1.38 96 1012.0
20260508030428 54 114 0.0 0.0 0.00 1.38 1.38 96 1011.7
20260508025926 54 115 0.0 0.0 0.00 1.38 1.38 96 1011.9
20260508025422 54 101 0.0 0.0 0.00 1.38 1.38 96 1011.8
20260508024919 54 111 0.0 0.0 0.00 1.38 1.38 96 1011.7
20260508024416 54 108 0.0 0.0 0.00 1.38 1.38 96 1011.9
20260508023912 54 103 0.0 1.0 0.00 1.38 1.38 96 1011.9
20260508023409 54 124 0.0 1.0 0.00 1.38 1.38 96 1011.8
20260508022906 54 105 0.0 1.0 0.00 1.38 1.38 96 1011.7
20260508022401 54 98 0.0 1.0 0.00 1.38 1.38 96 1011.6
20260508021859 54 107 0.0 0.0 0.00 1.38 1.38 96 1011.7
20260508021355 54 101 0.0 1.0 0.00 1.38 1.38 96 1011.7
20260508020851 54 99 0.0 0.0 0.00 1.38 1.38 96 1011.6
20260508020349 54 113 0.0 0.0 0.00 1.38 1.38 96 1011.5
20260508015846 54 113 0.0 0.0 0.00 1.38 1.38 96 1011.3
20260508015344 53 106 0.0 0.0 0.00 1.38 1.38 96 1011.5
20260508014840 54 99 0.0 1.0 0.00 1.38 1.38 96 1011.6
20260508014338 54 11 1.0 2.0 0.00 1.38 1.38 96 1011.5
20260508013837 54 82 1.0 1.0 0.00 1.38 1.38 95 1011.5
20260508013334 53 119 0.0 1.0 0.00 1.38 1.38 95 1011.5
20260508012832 54 135 0.0 1.0 0.00 1.38 1.38 95 1010.9
20260508012329 54 182 1.0 1.0 0.00 1.38 1.38 95 1010.9
20260508011827 54 104 0.0 0.0 0.00 1.38 1.38 95 1010.7
20260508011324 54 106 0.0 0.0 0.00 1.38 1.38 95 1010.6
20260508010821 54 113 0.0 1.0 0.00 1.38 1.38 95 1010.8
20260508010319 54 117 1.0 1.0 0.00 1.38 1.38 95 1011.0
20260508005815 54 114 0.0 1.0 0.00 1.38 1.38 94 1011.1
20260508005312 54 326 3.0 4.0 0.00 1.38 1.38 94 1010.6
20260508004808 54 113 0.0 0.0 0.07 1.38 1.38 94 1010.5
20260508004304 54 100 0.0 2.0 0.07 1.38 1.38 94 1010.9
20260508003801 54 90 1.0 4.0 0.00 1.37 1.37 94 1011.1
20260508003259 54 232 1.0 3.0 0.00 1.37 1.37 94 1010.9
20260508002755 55 98 1.0 2.0 0.00 1.37 1.37 94 1010.4
20260508002252 55 119 0.0 0.0 0.00 1.37 1.37 94 1009.9
20260508001748 54 159 1.0 6.0 0.00 1.37 1.37 94 1009.9
20260508001244 54 131 1.0 2.0 0.00 1.37 1.37 94 1010.1
20260508000740 55 93 0.0 1.0 0.00 1.37 1.37 95 1010.0
20260508000238 55 90 1.0 2.0 0.00 1.37 1.37 95 1009.9
20260507235734 55 71 1.0 2.0 0.00 1.37 1.37 95 1009.8
20260507235232 55 92 0.0 1.0 0.00 1.37 1.37 95 1009.6
20260507234728 55 113 1.0 1.0 0.00 1.37 1.37 95 1009.8
20260507234225 55 68 1.0 2.0 0.00 1.37 1.37 95 1009.7
20260507233721 55 66 1.0 1.0 0.00 1.37 1.37 95 1009.7
20260507233219 55 108 0.0 0.0 0.00 1.37 1.37 95 1009.7
20260507232716 55 90 0.0 3.0 0.00 1.37 1.37 95 1009.6
20260507232214 55 103 0.0 1.0 0.00 1.37 1.37 95 1009.7
20260507231710 55 109 1.0 1.0 0.00 1.37 1.37 95 1009.6
20260507231207 55 326 1.0 2.0 0.00 1.37 1.37 95 1009.6
20260507230704 55 122 1.0 3.0 0.00 1.37 1.37 95 1009.7
20260507230201 55 167 0.0 6.0 0.00 1.37 1.37 95 1009.5
20260507225700 55 256 2.0 7.0 0.00 1.37 1.37 95 1009.5
20260507225157 55 34 1.0 2.0 0.00 1.37 1.37 95 1009.3
20260507224653 55 14 2.0 6.0 0.00 1.37 1.37 95 1009.2
20260507224150 55 116 0.0 3.0 0.00 1.37 1.37 95 1009.0
20260507223645 55 86 1.0 1.0 0.00 1.37 1.37 95 1009.3
20260507223143 55 137 4.0 8.0 0.00 1.37 1.37 95 1009.4
20260507222639 55 334 3.0 4.0 0.00 1.37 1.37 95 1009.3
20260507222136 55 341 2.0 3.0 0.00 1.37 1.37 95 1008.9
20260507221632 55 42 2.0 4.0 0.00 1.37 1.37 95 1009.2
20260507221129 55 122 0.0 2.0 0.00 1.37 1.37 95 1009.3
20260507220626 55 340 4.0 6.0 0.00 1.37 1.37 95 1009.2
20260507220124 56 38 6.0 14.0 0.00 1.37 1.37 95 1009.2
20260507215619 56 74 2.0 6.0 0.00 1.37 1.37 95 1009.2
20260507215118 56 330 2.0 2.0 0.00 1.37 1.37 95 1008.9
20260507214614 56 127 1.0 4.0 0.00 1.37 1.37 95 1009.0
20260507214111 56 101 1.0 4.0 0.00 1.37 1.37 95 1009.1
20260507213607 57 66 3.0 8.0 0.00 1.37 1.37 95 1008.5
20260507213104 57 98 2.0 7.0 0.00 1.37 1.37 95 1008.4
20260507212600 57 138 0.0 6.0 0.00 1.37 1.37 95 1008.4
20260507212057 58 95 0.0 1.0 0.00 1.37 1.37 95 1008.5
20260507211554 58 254 3.0 3.0 0.00 1.37 1.37 95 1008.3
20260507211050 58 32 2.0 10.0 0.00 1.37 1.37 95 1008.2
20260507210547 59 275 2.0 4.0 0.00 1.37 1.37 95 1008.2
20260507210044 59 119 1.0 2.0 0.00 1.37 1.37 95 1007.9
20260507205540 59 96 2.0 7.0 0.00 1.37 1.37 95 1007.7
20260507205037 59 47 2.0 4.0 0.00 1.37 1.37 95 1007.8
20260507204533 59 8 2.0 4.0 0.00 1.37 1.37 95 1007.8
20260507204031 59 107 1.0 2.0 0.00 1.37 1.37 95 1007.9
20260507203529 60 72 2.0 7.0 0.00 1.37 1.37 95 1007.6
20260507203026 60 110 3.0 6.0 0.00 1.37 1.37 95 1007.8
20260507202521 60 11 2.0 3.0 0.00 1.37 1.37 96 1007.7
20260507202018 60 8 1.0 3.0 0.00 1.37 1.37 95 1007.7
20260507201514 60 261 1.0 3.0 0.00 1.37 1.37 95 1007.7
20260507201010 61 357 3.0 8.0 0.00 1.37 1.37 96 1007.5
20260507200505 61 90 1.0 6.0 0.00 1.37 1.37 95 1007.8
20260507200001 60 134 0.0 8.0 0.00 1.37 1.37 95 1007.8
20260507195459 60 300 1.0 9.0 0.00 1.37 1.37 95 1007.7
20260507194956 61 297 3.0 3.0 0.00 1.37 1.37 95 1007.6
20260507194453 60 344 2.0 8.0 0.00 1.37 1.37 95 1007.6
20260507193948 61 354 4.0 6.0 0.00 1.37 1.37 95 1007.4
20260507193446 61 342 2.0 8.0 0.00 1.37 1.37 94 1007.5
20260507192943 62 75 2.0 11.0 0.00 1.37 1.37 94 1007.6
20260507192438 63 83 3.0 9.0 0.00 1.37 1.37 94 1007.3
20260507191936 64 344 2.0 6.0 0.00 1.37 1.37 94 1007.4
20260507191432 66 77 1.0 4.0 0.00 1.37 1.37 93 1007.1
20260507190928 68 327 5.0 6.0 0.00 1.37 1.37 94 1006.9
20260507190426 73 327 4.0 6.0 0.00 1.37 1.37 94 1006.4
20260507185925 74 224 5.0 7.0 0.00 1.37 1.37 94 1006.4
20260507185422 74 170 3.0 6.0 0.00 1.37 1.37 95 1006.5
20260507184919 73 247 4.0 6.0 0.00 1.37 1.37 95 1006.8
20260507184417 71 203 2.0 6.0 0.00 1.37 1.37 96 1007.3
20260507183914 71 239 3.0 7.0 0.00 1.37 1.37 96 1007.1
20260507183411 71 235 3.0 6.0 0.00 1.37 1.37 96 1007.0
20260507182908 71 228 4.0 4.0 0.00 1.37 1.37 96 1007.1
20260507182403 71 280 3.0 4.0 0.00 1.37 1.37 97 1006.9
20260507181900 71 185 1.0 2.0 0.00 1.37 1.37 97 1007.2
20260507181356 70 268 4.0 7.0 0.00 1.37 1.37 97 1007.3
20260507180853 70 239 4.0 6.0 0.00 1.37 1.37 97 1007.4
20260507180350 69 286 3.0 6.0 0.00 1.37 1.37 97 1007.3
20260507175846 70 283 2.0 6.0 0.00 1.37 1.37 97 1007.7
20260507175343 70 210 2.0 3.0 0.00 1.37 1.37 97 1007.2
20260507174840 70 212 2.0 3.0 0.00 1.37 1.37 97 1007.0
20260507174338 70 143 0.0 4.0 0.00 1.37 1.37 97 1006.9
20260507173835 70 243 2.0 6.0 0.07 1.37 1.37 97 1007.0
20260507173332 70 233 1.0 3.0 0.07 1.37 1.37 97 1006.8
20260507172828 70 168 3.0 7.0 0.00 1.36 1.36 97 1007.0
20260507172325 70 127 2.0 4.0 0.00 1.36 1.36 97 1007.3
20260507171821 70 152 3.0 3.0 0.00 1.36 1.36 98 1007.5
20260507171318 69 157 1.0 3.0 0.00 1.36 1.36 98 1007.4
20260507170815 69 181 2.0 3.0 0.00 1.36 1.36 98 1007.5
20260507170311 69 151 1.0 2.0 0.00 1.36 1.36 98 1007.5
20260507165807 69 126 1.0 2.0 0.00 1.36 1.36 98 1007.8
20260507165306 69 144 1.0 2.0 0.00 1.36 1.36 98 1007.8
20260507164759 68 138 1.0 1.0 0.05 1.36 1.36 98 1008.2
20260507164257 68 192 3.0 4.0 0.05 1.36 1.36 98 1008.5
20260507163754 68 195 3.0 3.0 0.00 1.35 1.35 98 1008.4
20260507163252 68 198 2.0 7.0 0.00 1.35 1.35 98 1008.2
20260507162747 68 172 1.0 3.0 0.00 1.35 1.35 98 1008.6
20260507162243 68 226 3.0 3.0 0.00 1.35 1.35 98 1008.4
20260507161741 68 220 3.0 4.0 0.00 1.35 1.35 98 1008.6
20260507161237 69 127 0.0 1.0 0.00 1.35 1.35 98 1008.6
20260507160733 68 146 0.0 2.0 0.00 1.35 1.35 98 1008.6
20260507160229 69 160 1.0 3.0 0.07 1.35 1.35 98 1008.7
20260507155726 68 156 1.0 2.0 0.00 1.34 1.34 98 1008.6
20260507155222 68 185 2.0 2.0 0.00 1.34 1.34 98 1008.3
20260507154719 69 224 2.0 3.0 0.05 1.34 1.34 98 1008.5
20260507154216 68 147 3.0 3.0 0.05 1.34 1.34 98 1008.1
20260507153712 68 148 1.0 2.0 0.00 1.33 1.33 98 1008.4
20260507153209 68 143 1.0 2.0 0.07 1.33 1.33 98 1008.6
20260507152706 68 216 1.0 2.0 0.12 1.33 1.33 98 1008.6
20260507152201 68 173 1.0 3.0 0.12 1.32 1.32 98 1008.9
20260507151657 67 179 2.0 3.0 0.12 1.31 1.31 98 1008.9
20260507151154 67 246 2.0 3.0 0.12 1.30 1.30 98 1008.9
20260507150652 68 192 2.0 4.0 0.12 1.29 1.29 98 1009.3
20260507150148 67 239 2.0 4.0 0.24 1.28 1.28 98 1009.3
20260507145643 67 88 3.0 3.0 0.38 1.27 1.27 98 1009.3
20260507145141 68 243 2.0 6.0 0.35 1.24 1.24 97 1009.2
20260507144637 68 186 2.0 4.0 0.35 1.21 1.21 97 1009.3
20260507144136 68 226 4.0 8.0 0.38 1.18 1.18 97 1009.5
20260507143632 68 170 1.0 7.0 0.26 1.14 1.14 97 1009.2
20260507143129 68 243 2.0 6.0 0.24 1.12 1.12 97 1009.3
20260507142624 68 245 2.0 3.0 0.24 1.09 1.09 97 1009.4
20260507142122 68 282 3.0 4.0 0.17 1.08 1.08 97 1009.2
20260507141618 68 213 2.0 4.0 0.07 1.05 1.05 97 1009.3
20260507141115 68 197 2.0 3.0 0.07 1.05 1.05 97 1009.4
20260507140611 68 225 2.0 4.0 0.00 1.04 1.04 97 1009.1
20260507140109 68 235 2.0 4.0 0.05 1.04 1.04 97 1009.0
20260507135606 68 177 2.0 7.0 0.12 1.04 1.04 97 1009.1
20260507135103 68 203 4.0 7.0 0.12 1.03 1.03 97 1009.1
20260507134559 68 228 6.0 7.0 0.12 1.02 1.02 97 1009.2
20260507134055 69 178 4.0 7.0 0.07 1.01 1.01 97 1009.5
20260507133551 69 192 3.0 3.0 0.00 1.00 1.00 97 1009.3
20260507133049 69 137 3.0 4.0 0.00 1.00 1.00 97 1008.9
20260507132546 69 149 2.0 3.0 0.00 1.00 1.00 97 1009.0
20260507132042 69 226 2.0 4.0 0.00 1.00 1.00 97 1008.8
20260507131539 69 156 0.0 2.0 0.00 1.00 1.00 98 1008.7
20260507131037 69 173 2.0 3.0 0.00 1.00 1.00 98 1008.8
20260507130533 68 211 4.0 7.0 0.00 1.00 1.00 98 1008.8
20260507130032 68 215 2.0 4.0 0.00 1.00 1.00 98 1009.0
20260507125530 68 209 3.0 6.0 0.00 1.00 1.00 98 1008.9
20260507125027 68 185 4.0 6.0 0.00 1.00 1.00 98 1008.8
20260507124523 68 182 3.0 4.0 0.00 1.00 1.00 98 1008.8
20260507124021 68 154 2.0 7.0 0.00 1.00 1.00 98 1009.0
20260507123519 68 173 3.0 4.0 0.00 1.00 1.00 98 1009.3
20260507123015 68 205 2.0 8.0 0.07 1.00 1.00 98 1009.4
20260507122510 68 140 4.0 11.0 0.07 1.00 1.00 98 1009.5
20260507122007 68 172 4.0 4.0 0.00 0.99 0.99 98 1009.5
20260507121502 68 130 1.0 2.0 0.00 0.99 0.99 98 1009.5
20260507120958 68 194 2.0 3.0 0.00 0.99 0.99 98 1009.8
20260507120455 67 158 3.0 6.0 0.00 0.99 0.99 98 1009.6
20260507115952 67 185 2.0 3.0 0.00 0.99 0.99 98 1009.6
20260507115448 67 119 0.0 3.0 0.00 0.99 0.99 98 1009.6
20260507114944 67 167 4.0 4.0 0.00 0.99 0.99 98 1009.9
20260507114440 67 132 1.0 4.0 0.00 0.99 0.99 98 1010.1
20260507113938 67 153 1.0 1.0 0.00 0.99 0.99 98 1010.0
20260507113434 67 129 2.0 2.0 0.00 0.99 0.99 98 1009.8
20260507112932 67 106 2.0 2.0 0.00 0.99 0.99 98 1009.8
20260507112429 67 139 1.0 2.0 0.00 0.99 0.99 98 1010.0
20260507111926 67 218 2.0 2.0 0.00 0.99 0.99 98 1010.1
20260507111423 67 136 1.0 1.0 0.00 0.99 0.99 98 1010.1
20260507110920 66 132 0.0 0.0 0.00 0.99 0.99 98 1010.0
20260507110416 66 126 1.0 1.0 0.05 0.99 0.99 98 1009.9
20260507105913 66 127 0.0 1.0 0.12 0.99 0.99 98 1009.9
20260507105409 66 219 2.0 3.0 0.12 0.98 0.98 98 1009.9
20260507104906 66 131 1.0 2.0 0.12 0.97 0.97 98 1009.8
20260507104403 66 145 0.0 0.0 0.07 0.96 0.96 98 1009.8
20260507103859 66 126 0.0 0.0 0.05 0.95 0.95 98 1009.8
20260507103356 66 103 0.0 1.0 0.12 0.95 0.95 98 1009.6
20260507102852 66 112 0.0 1.0 0.07 0.94 0.94 98 1009.9
20260507102348 66 97 0.0 1.0 0.05 0.93 0.93 98 1009.8
20260507101845 66 91 0.0 1.0 0.12 0.93 0.93 98 1009.7
20260507101345 66 131 0.0 1.0 0.12 0.92 0.92 98 1009.6
20260507100842 66 128 1.0 2.0 0.05 0.91 0.91 98 1009.5
20260507100340 66 117 2.0 3.0 0.07 0.90 0.90 98 1009.6
20260507095838 66 193 2.0 2.0 0.12 0.90 0.90 98 1009.6
20260507095334 66 182 1.0 2.0 0.12 0.89 0.89 98 1009.8
20260507094832 66 149 1.0 2.0 0.14 0.88 0.88 98 1009.4
20260507094328 66 210 2.0 2.0 0.07 0.87 0.87 98 1009.5
20260507093825 66 149 2.0 3.0 0.05 0.86 0.86 98 1009.5
20260507093324 66 170 2.0 4.0 0.05 0.86 0.86 98 1009.4
20260507092821 66 171 2.0 6.0 0.07 0.85 0.85 98 1009.6
20260507092318 66 186 3.0 6.0 0.05 0.84 0.84 98 1009.5
20260507091814 66 143 1.0 3.0 0.05 0.84 0.84 98 1009.4
20260507091310 66 215 4.0 4.0 0.00 0.83 0.83 98 1009.7
20260507090805 66 173 2.0 4.0 0.07 0.83 0.83 98 1009.3
20260507090302 66 165 4.0 6.0 0.31 0.83 0.83 98 1009.8
20260507085759 66 184 2.0 6.0 0.50 0.81 0.81 98 1010.1
20260507085256 66 251 2.0 4.0 0.50 0.77 0.77 98 1010.0
20260507084753 66 199 4.0 4.0 0.59 0.74 0.74 98 1010.1
20260507084249 66 135 2.0 3.0 0.47 0.69 0.69 98 1010.3
20260507083747 66 178 2.0 4.0 0.38 0.64 0.64 97 1010.6
20260507083244 66 198 2.0 4.0 0.17 0.60 0.60 97 1010.6
20260507082739 66 202 3.0 3.0 0.12 0.58 0.58 97 1010.4
20260507082235 66 190 2.0 3.0 0.07 0.57 0.57 97 1010.3
20260507081732 66 177 2.0 2.0 0.00 0.56 0.56 97 1010.1
20260507081228 66 144 2.0 2.0 0.05 0.56 0.56 97 1010.0
20260507080725 66 131 0.0 1.0 0.05 0.56 0.56 97 1010.3
20260507080221 66 121 0.0 0.0 0.07 0.55 0.55 97 1010.2
20260507075717 66 111 0.0 0.0 0.07 0.55 0.55 97 1010.3
20260507075214 66 114 0.0 0.0 0.00 0.54 0.54 97 1010.1
20260507074710 66 142 1.0 2.0 0.00 0.54 0.54 97 1010.3
20260507074209 66 129 0.0 0.0 0.05 0.54 0.54 97 1010.4
20260507073704 66 120 0.0 0.0 0.00 0.53 0.53 97 1010.4
20260507073200 66 124 0.0 0.0 0.00 0.53 0.53 97 1010.5
20260507072659 65 121 0.0 0.0 0.00 0.53 0.53 96 1010.3
20260507072156 65 99 0.0 0.0 0.00 0.53 0.53 96 1010.6
20260507071653 65 117 0.0 0.0 0.00 0.53 0.53 96 1010.7
20260507071149 65 120 0.0 0.0 0.00 0.53 0.53 96 1010.8
20260507070647 66 120 0.0 0.0 0.00 0.53 0.53 96 1010.7
20260507070143 65 120 0.0 0.0 0.00 0.53 0.53 96 1010.8
20260507065639 66 121 0.0 0.0 0.00 0.53 0.53 96 1011.1
20260507065137 66 114 0.0 0.0 0.00 0.53 0.53 96 1010.9
20260507064634 66 107 0.0 0.0 0.00 0.53 0.53 96 1010.7
20260507064133 66 107 0.0 0.0 0.00 0.53 0.53 95 1010.7
20260507063630 66 106 0.0 0.0 0.00 0.53 0.53 95 1011.0
20260507063127 66 101 0.0 1.0 0.00 0.53 0.53 95 1011.0
20260507062623 66 82 0.0 1.0 0.00 0.53 0.53 95 1011.0
20260507062121 66 92 0.0 1.0 0.00 0.53 0.53 95 1011.3
20260507061619 66 119 1.0 2.0 0.00 0.53 0.53 95 1011.2
20260507061117 66 176 2.0 2.0 0.00 0.53 0.53 95 1011.6
20260507060615 66 135 1.0 2.0 0.00 0.53 0.53 94 1011.1
20260507060111 66 114 3.0 3.0 0.00 0.53 0.53 94 1011.0
20260507055606 67 136 2.0 3.0 0.00 0.53 0.53 94 1011.1
20260507055102 67 137 0.0 0.0 0.00 0.53 0.53 93 1011.4